Location: Perryvale
(54.4667°N, 113.3833°W)
Time: 14:39:29
(UTC+00:00)

A-11 Canister half - Visible Passes

Search period start: 19 May 2024 00:00
Search period end: 29 May 2024 00:00
Orbit: 1514 x 1685 km, 47.2° (Epoch: 18 May)

Date Brightness Start Highest point End Pass type
(mag) Time Alt. Az. Time Alt. Az. Time Alt. Az.
19 May 10.0 10:11:21 10° SSW 10:19:10 31° SE 10:26:51 10° E visible
20 May 10.0 09:48:36 10° SSW 09:56:17 29° SE 10:03:52 10° E visible
21 May 10.0 09:26:30 12° SSW 09:33:25 28° SE 09:40:52 10° E visible
22 May 10.0 09:04:21 14° S 09:10:33 27° SE 09:17:52 10° E visible
23 May 10.0 08:42:09 15° S 08:47:40 26° SE 08:54:51 10° E visible
24 May 10.0 08:19:52 16° S 08:24:49 25° SE 08:31:49 10° E visible
24 May 9.4 10:19:09 10° SW 10:28:02 48° SSE 10:36:44 10° E visible
25 May 10.0 07:57:31 17° S 08:01:58 23° SE 08:08:47 10° E visible
25 May 9.4 09:56:15 10° SW 10:05:08 46° SSE 10:13:48 10° E visible
26 May 10.1 07:35:05 17° SSE 07:39:06 22° SE 07:45:45 10° E visible
26 May 9.4 09:33:22 10° SW 09:42:13 45° SSE 09:50:52 10° E visible
27 May 10.1 07:12:33 17° SSE 07:16:14 21° SE 07:22:41 10° E visible
27 May 9.4 09:10:40 11° SW 09:19:18 44° SSE 09:27:55 10° E visible
28 May 10.1 06:49:51 16° SSE 06:53:22 20° SE 06:59:35 10° E visible
28 May 9.4 08:47:57 11° SW 08:56:23 43° SSE 09:04:58 10° E visible
